Regional Weather Roundup
Issued by NWS

Home | Current Version | Previous Version | Text Only | Print | Product List | Glossary On
Versions: 1 2 3 4 5 6 7 8 9 10 11 12 13 14 15 16 17 18 19 20 21 22 23 24 25 26 27 28 29 30 31 32 33 34 35 36 37 38 39 40 41 42 43 44 45 46 47 48 49 50
000
ASUS44 KFWD 042003
RWRTX
NORTH TEXAS HOURLY WEATHER ROUNDUP
NATIONAL WEATHER SERVICE FORT WORTH TX
300 PM CDT WED MAY 04 2016

NOTE: "FAIR" INDICATES FEW OR NO CLOUDS BELOW 12,000 FEET WITH NO
SIGNIFICANT WEATHER AND/OR OBSTRUCTIONS TO VISIBILITY.

TXZ118-119-042100-
DALLAS/FORT WORTH METROPLEX

CITY           SKY/WX    TMP DP  RH WIND       PRES   REMARKS
DFW AIRPORT    SUNNY     81  48  31 NW16G24   30.01F
DALLAS LOVE    SUNNY     81  50  33 NW15G21   30.00F
FTW MEACHAM    SUNNY     81  48  31 NW15G22   30.02F
DAL-EXECUTIVE  SUNNY     78  50  37 NW18      30.01F
FTW-ALLIANCE   SUNNY     79  49  34 NW13G20   30.02F
FTW-NAS-JRB    SUNNY     81  50  33 NW14      30.03F
FTW-SPINKS     SUNNY     79  52  38 NW14G23   30.04F
ARLINGTON      SUNNY     81  50  33 NW16G22   30.02F
GRAND PRAIRIE  SUNNY     81  46  30 NW9       30.03F
ADDISON        SUNNY     79  48  34 NW13G23   30.02F
MESQUITE       SUNNY     79  48  34 NW14G22   30.01S
LANCASTER      SUNNY     80  46  29 NW12G17   30.02S
$$

TXZ091>094-102>105-117-120-121-131>134-042100-
NORTH CENTRAL TEXAS

CITY           SKY/WX    TMP DP  RH WIND       PRES   REMARKS
SHRMAN/DENISON SUNNY     75  45  34 NW13      30.01F
GAINESVILLE    SUNNY     77  51  39 NW8       30.04S
BRIDGEPORT     SUNNY     78  51  39 NW8       30.06F
DECATUR        SUNNY     77  46  33 NW12G17   30.04F
DENTON         SUNNY     78  51  38 NW15G22   30.01F
MCKINNEY       SUNNY     79  48  33 NW18G24   30.00F
WAXAHACHIE     SUNNY     80  52  37 NW9G18    30.03S
CLEBURNE       SUNNY     79  52  38 NW13G18   30.05F
GRANBURY       SUNNY     80  49  34 NW10G17   30.05F
$$

TXZ083>090-098>101-113>116-127>130-139>142-154-155-042100-
WESTERN NORTH TEXAS

CITY           SKY/WX    TMP DP  RH WIND       PRES   REMARKS
WICHITA FALLS  SUNNY     81  47  30 NW17      30.05F
WF-KICKAPOO    SUNNY     82  42  24 N15G22    30.07S
VERNON         SUNNY     83  32  16 NE6       30.06F
ABILENE        NOT AVBL
ABILENE-DYESS  SUNNY     78  44  30 NW9       30.10F
MINERAL WELLS  SUNNY     80  47  31 NW10      30.04F
STEPHENVILLE   SUNNY     78  46  31 N12G20    30.09F
COMANCHE       SUNNY     77  50  38 NW9G20    30.08F
BROWNWOOD      SUNNY     77  46  33 NW15G23   30.09S
$$

TXZ143>147-156>162-174-175-042100-
CENTRAL TEXAS

CITY           SKY/WX    TMP DP  RH WIND       PRES   REMARKS
WACO           SUNNY     83  50  31 NW15G23   30.02F
WACO-TSTC      SUNNY     82  50  32 NW13G23   30.02F
WACO-MCGREGOR  SUNNY     82  50  32 NW12G18   30.02F
HILLSBORO      SUNNY     78  50  37 W15G21    30.03S
CORSICANA      SUNNY     82  50  32 NW15G21   30.02F
HEARNE         SUNNY     81  55  41 NW7       30.03F
CAMERON        SUNNY     83  53  35 NW12      30.01F
TEMPLE         SUNNY     82  52  35 W10G20    30.03F
KILLEEN        SUNNY     80  51  35 NW16      30.04F
KILLEEN-SKYLRK SUNNY     81  53  37 NW8G16    30.03F
FORT HOOD      SUNNY     81  51  34 NW10G17   30.01F
HAMILTON       SUNNY     79  51  37 NW12      30.07F
LAMPASAS       SUNNY     79  50  36 NW9       30.05F
$$

TXZ095>097-106>112-122>126-135>138-148>153-164>167-042100-
EAST TEXAS

CITY           SKY/WX    TMP DP  RH WIND       PRES   REMARKS
PARIS          SUNNY     79  54  41 NW15      29.96F
MOUNT PLEASANT SUNNY     79  51  38 W14G21    29.97F
GILMER         SUNNY     78  52  40 W8G18     29.96F
MINEOLA        SUNNY     79  54  41 N14       29.99S
TYLER          SUNNY     81  49  32 NW16      29.97F
LONGVIEW       MOSUNNY   79  54  41 W13G24    29.95F
MARSHALL       MOSUNNY   77  48  35 NW10      29.96F
PALESTINE      SUNNY     80  54  40 W13G20    30.01F
JACKSONVILLE   SUNNY     78  49  36 W9G22     30.01F
CENTER         FAIR      80  51  37 W12G18    29.94F
NACOGDOCHES    MOSUNNY   79  54  41 NW14G20   29.97F
LUFKIN         SUNNY     79  51  37 NW10      29.98F
$$

SUPPLEMENTAL OBSERVATIONS (CENTRAL)

CITY           SKY/WX    TMP DP  RH WIND       PRES   REMARKS
$$

SUPPLEMENTAL OBSERVATIONS (WEST)

CITY           SKY/WX    TMP DP  RH WIND       PRES   REMARKS
$$

SUPPLEMENTAL OBSERVATIONS (EAST)

CITY           SKY/WX    TMP DP  RH WIND       PRES   REMARKS
$$

SUPPLEMENTAL OBSERVATIONS ARE A COLLECTION OF AUTOMATED INSTRUMENTS
THAT ARE MAINTAINED BY A VARIETY OF FEDERAL AND STATE AGENCIES.
CERTAIN ELEMENTS...SUCH AS HUMIDITY VALUES AND SUSTAINED WIND
SPEEDS...MAY BE APPROXIMATED.




USA.gov is the U.S. government's official web portal to all federal, state and local government web resources and services.